Showing default

QIANFAN-19, 61552

Orbit data source: Space-Track

QIANFAN-19, 61552 is a Chinese payload satellite in LEO that was launched on Tue, 15 Oct 2024 UTC via a CHANG ZHENG 6A launch vehicle from the Taiyaun Space Center, China (TSC). Payload-class satellites include a variety of spacecraft equipped with specific instruments for various scientific and technological missions. These include communications satellites like Starlink; space stations such as the ISS; scientific satellites like the Hubble; Earth observation satellites from companies like Planet Labs, Umbra, and HawkEye 360; GPS; miniature CubeSats for education and research; and military/defense satellites.

Loading next visibility...
Identifier
61552, 2024-185A
Orbit
LEO
Last TLE update
13 hours ago
Origin
Manufacturer
GESIH/SECM
Mission
Operational Commercial Communications
Bus & Motor
QIANFAN, Unknown motor
Mass
267 kg wet, ~267 kg dry
Launch date (UTC)
2024-10-15 (9 months ago)
Launch vehicle
CHANG ZHENG 6A
Launch site
Taiyaun Space Center, China (TSC)
Object type
Payload
Rocket body
Debris
Shape & HBR
Box + 1 Pan, 10 m
Radar Cross Section
13.200 m², Large (>1 m²)

Expand to show TLE details & history

TLE from 13 hours ago
0 QIANFAN-19
1 61552U 24185A   25181.86194194  .00000315  00000-0  15834-3 0  9991
2 61552  88.9840  96.8434 0009292 106.7551 253.4656 14.14092282 46362
Epoch: 2025-06-30T20:41Z
TLE epoch observation values (Epoch: 2025-06-30T20:41:11.783Z)
Latitude
-0.00003°
Longitude
-132.62136°
Altitude
850.363 km
Speed
7.426 km/s
True Right ascension
06h 27m 22s
True Declination
0° 00' 00"
Sunlit
Object was in daylight at epoch
Visualization orbit readout
Latitude
21.10428°
Longitude
46.92846°
Altitude
844.163 km
Speed
7.434 km/s
Apparent Right ascension
15h 20m 17s
Apparent Declination
-19° 35' 30"
Sunlit
Object is in full shadow
Visualization observer readout
Local Sidereal Time
20:57:37
Azimuth
251.325° W
Elevation
-8.269°
Doppler factor
1
Orbital elements
Apogee altitude
849.071 km
Perigee altitude
835.652 km
Semi-major axis
7,220.499 km
Eccentricity
0.00093
Inclination
88.984°
RAAN
96.8434°
Arg. of periapsis
106.7551°
True anomaly
Unknown
Mean anomaly
253.4656°
Eccentric anomaly
Unknown
Mean motion
3.53747 °/min
Orbital period
101.77 mins
BSTAR
0.00015834
Loading maneuver chart data...
Loading SW <> Apogee altitude chart data...
Loading historical data...
Loading historical data...
Loading historical data...
Loading historical data...
Loading historical data...
Loading historical data...
Loading historical data...

QIANFAN-19 Visibility forecast

Observer location: undefined°, undefined°

Span
Click to sort rows by Start time (UTC) header in descending order
Start Az.
Max El. time (UTC)
Max El. Az.
Max El.
End time (UTC)
End Az.
9 mins2025-07-01 18:53:21.639Z184.097° SSW2025-07-01 18:57:21.639Z304.476° NW44.244°2025-07-01 19:02:21.639Z356.447° N
7 mins2025-07-02 05:33:21.639Z37.8° NE2025-07-02 05:36:21.639Z77.618° E21.625°2025-07-02 05:40:21.639Z129.398° SE
8 mins2025-07-02 07:15:21.639Z335.329° NNW2025-07-02 07:18:21.639Z282.436° WNW33.366°2025-07-02 07:23:21.639Z210.253° SW
|